Location: Ferchesar
(52.6477°N, 12.4298°E)
Time: 00:45:28
(UTC+01:00)

Vanguard 2 Rocket - Pass Details

Date: 03 December 2021
Orbit: 554 x 3325 km, 32.9° (Epoch: 21 January)

Event Time Altitude Azimuth Distance (km) Brightness Sun altitude
Rises 01:05:07 0° 259° (WSW) 5,650 - -57.0°
Reaches altitude 10° 01:12:36 10° 232° (SW) 5,308 - -56.4°
Maximum altitude 01:17:17 12° 215° (SW) 5,478 - -56.1°
Drops below altitude 10° 01:22:27 10° 198° (SSW) 5,929 - -55.6°
Sets 01:32:43 0° 173° (S) 7,273 - -54.7°
